Regional Weather Roundup
Issued by NWS Sterling, VA

Home | Current Version | Previous Version | Graphics & Text | Print | Product List | Glossary On
Versions: 1 2 3 4 5 6 7 8 9 10 11 12 13 14 15 16 17 18 19 20 21 22 23 24 25 26 27 28 29 30 31 32 33 34 35 36 37 38 39 40 41 42 43 44 45 46 47 48 49 50
558
ASUS41 KLWX 211811
RWRLWX

REGIONAL WEATHER ROUNDUP
NATIONAL WEATHER SERVICE BALTIMORE MD/WASHINGTON DC
100 PM EST WED FEB 21 2018

Note: "FAIR" indicates few or no clouds below 12,000 feet
with no significant weather and/or obstructions to visibility.
 TC=TEMPERATURE CELSIUS

 * =Non NWS site. Station does not report precipitation (e.g. rain,
    snow, etc.), thunder, or fog.

DCZ001-MDZ009-015-VAZ040>042-051-053>054-211900-
WASHINGTON METRO

CITY           SKY/WX    TMP DP  RH WIND       PRES   REMARKS
WASHINGTON NAT FAIR      78  63  59 S20G28    30.29F
DULLES         FAIR      77  62  59 SW16G25   30.29F
ANDREWS AFB    FAIR      77  61  58 SW23      30.29F
FT BELVOIR     FAIR      77  61  56 S9G17     30.30F
QUANTICO       FAIR      78  63  59 SW15G26   30.32F
COLLEGE PARK*  FAIR      76  61  59 S10G21    30.29F
LEESBURG*      FAIR      79  63  57 S16       30.29F
MANASSAS*      PTSUNNY   76  62  62 SW18G26   30.30F
GAITHERSBURG*  FAIR      77  61  57 SW15G21   30.30F

$$

MDZ006>007-011-014-211900-
BALTIMORE METRO

CITY           SKY/WX    TMP DP  RH WIND       PRES   REMARKS
BWI AIRPORT    FAIR      77  62  59 SW17G24   30.27F
MD SCIENCE CTR   N/A     81  61  50 MISG      30.29F
MARTIN STATE   MOSUNNY   79  64  61 S13G21    30.29F
ANNAPOLIS      FAIR      80  64  58 SW10G23   30.29F
FORT MEADE*    FAIR      77  61  57 SW14G22   30.31F

$$

MDZ012-015-019>023-211900-
MARYLAND EASTERN SHORE

CITY           SKY/WX    TMP DP  RH WIND       PRES   REMARKS
OCEAN CITY     FAIR      72  63  73 SW21G29   30.36F
SALISBURY      FAIR      73  63  70 SW15G29   30.35F
BAY BRIDGE AP* PTSUNNY   75  61  60 S14       30.30F
CAMBRIDGE*     MOSUNNY   73  63  68 S15G24    30.34F
EASTON*        MOSUNNY   73  63  68 SW22      30.36F

$$

MDZ017>025-211900-
SOUTHERN MARYLAND

CITY           SKY/WX    TMP DP  RH WIND       PRES   REMARKS
PATUXENT RIVER FAIR      75  62  64 SW17G29   30.33F
ST INIGOES     FAIR      72  61  68 SW15      30.34F
LEONARDTOWN*   FAIR      73  61  64 S16G23    30.35F

$$

MDZ003>005-211900-
NORTH CENTRAL MARYLAND

CITY           SKY/WX    TMP DP  RH WIND       PRES   REMARKS
FREDERICK*     SUNNY     81  59  47 SW14G21   30.29F
HAGERSTOWN APT FAIR      81  57  43 S18G25    30.23F
WESTMINSTER*   FAIR      75  61  60 SW16      30.27F

$$

MDZ501>502-211900-
WESTERN MARYLAND

CITY           SKY/WX    TMP DP  RH WIND       PRES   REMARKS
OAKLAND*       FAIR      64  52  63 SW13G21   30.33S
CUMBERLAND*    FAIR      81  54  39 SW13G25   30.27F

$$

VAZ025>031-211900-
SHENANDOAH VALLEY

CITY           SKY/WX    TMP DP  RH WIND       PRES   REMARKS
WINCHESTER*    FAIR      77  57  50 SW14G23   30.28F
FRONT ROYAL*   FAIR      79  59  50 S13G18    30.27F
LURAY*         FAIR      77  59  53 S18G30    30.30F
NEW MARKET*    FAIR      77  59  53 S13G21    30.28F
STAUNTON*      CLOUDY    72  58  62 SW17      30.37S
WAYNESBORO*    CLOUDY    75  59  57 SW12G23   30.36F

$$

WVZ021-048>050-054>055-211900-
EASTERN WEST VIRGINIA PANHANDLE

CITY           SKY/WX    TMP DP  RH WIND       PRES   REMARKS
MARTINSBURG    FAIR      81  58  45 S16G26    30.23F
PETERSBURG*    CLOUDY    79  57  46 S14G21    30.25F

$$

VAZ036>039-050-211900-
CENTRAL FOOTHILLS

CITY           SKY/WX    TMP DP  RH WIND       PRES   REMARKS
CHARLOTTESVILL PTSUNNY   80  61  52 SW12G22   30.33F
CULPEPER*      CLOUDY    76  60  56 SW16      30.32F
ORANGE*        FAIR      73  61  64 S21G30    30.31F
GORDONSVILLE*  CLOUDY    76  63  65 SW16G26   30.33F
WARRENTON*     CLOUDY    76  58  53 SW15G23   30.31F

$$

VAZ055>057-211900-
NORTH AND CENTRAL PIEDMONT

CITY           SKY/WX    TMP DP  RH WIND       PRES   REMARKS
FREDERICKSBRG* FAIR      78  64  61 SW20G31   30.32F
STAFFORD*      PTSUNNY   78  63  60 SW21G29   30.36F

$$

NCZ024-NYZ072-PAZ021-071-VAZ022-071-211900-
OTHER REGIONAL OBSERVATIONS

CITY           SKY/WX    TMP DP  RH WIND       PRES   REMARKS
NEW YORK CITY  FAIR      74  59  59 VRB5G22   30.24F
PHILADELPHIA   PTSUNNY   74  60  61 SW17G26   30.28F
PITTSBURGH     DRIZZLE   61  53  75 NW10      30.31R
ROANOKE        PTSUNNY   76  58  53 SW10      30.39F
RICHMOND       FAIR      77  63  61 SW15      30.38F
RALEIGH        PTSUNNY   75  62  64 SW14      30.43F

$$

ANZ530>537-211900-
MARINE OBSERVATIONS

STATION/POSITION TIME  TEMP    WIND        PRES
                       AIR SEA DIR/SP/G
                 (UTC) (F)     (DEG/KT/KT) (MB)
THOMAS PT LIGHT  1800   64 40  230/ 14/ 15   N/A
BALT KEY BRIDGE  1742   73     220/ 18/ 28 1024.9F
COVE POINT       1742   72     240/ 20/ 26 1027.8F
LEWISETTA        1742   72 52  260/ 17/ 23 1027.9F
SOLOMONS ISLAND  1742   68 45  230/ 17/ 23 1026.9F
PINEY POINT      1742          240/ 12/ 19   N/A

$$





USA.gov is the U.S. government's official web portal to all federal, state and local government web resources and services.